Year,Month,Day,Hour,Minute,Value (Times are PST for temperature in C)
2008,09,23,00,00,10.10
2008,09,23,00,01,10.10
2008,09,23,00,02,10.10
2008,09,23,00,03,10.10
2008,09,23,00,04,10.10
2008,09,23,00,05,10.10
2008,09,23,00,06,10.10
2008,09,23,00,07,10.10
2008,09,23,00,08,10.10
2008,09,23,00,09,10.10
2008,09,23,00,10,10.10
2008,09,23,00,11,10.00
2008,09,23,00,12,10.00
2008,09,23,00,13,10.00
2008,09,23,00,14,10.00
2008,09,23,00,15,10.00
2008,09,23,00,16,10.00
2008,09,23,00,17,10.00
2008,09,23,00,18,10.00
2008,09,23,00,19,10.00
2008,09,23,00,20,10.00
2008,09,23,00,21,10.00
2008,09,23,00,22,10.00
2008,09,23,00,23,10.00
2008,09,23,00,24,10.00
2008,09,23,00,25,10.00
2008,09,23,00,26,10.00
2008,09,23,00,27,10.00
2008,09,23,00,28,10.00
2008,09,23,00,29,10.00
2008,09,23,00,30,10.00
2008,09,23,00,31,10.00
2008,09,23,00,32,10.00
2008,09,23,00,33,10.00
2008,09,23,00,34,10.00
2008,09,23,00,35,10.00
2008,09,23,00,36,10.00
2008,09,23,00,37,10.00
2008,09,23,00,38,9.90
2008,09,23,00,39,9.90
2008,09,23,00,40,9.90
2008,09,23,00,41,9.90
2008,09,23,00,42,9.90
2008,09,23,00,43,9.90
2008,09,23,00,44,9.90
2008,09,23,00,45,9.90
2008,09,23,00,46,9.90
2008,09,23,00,47,9.90
2008,09,23,00,48,9.90
2008,09,23,00,49,9.80
2008,09,23,00,50,9.80
2008,09,23,00,51,9.80
2008,09,23,00,52,9.80
2008,09,23,00,53,9.80
2008,09,23,00,54,9.80
2008,09,23,00,55,9.80
2008,09,23,00,56,9.80
2008,09,23,00,57,9.80
2008,09,23,00,58,9.80
2008,09,23,00,59,9.80
2008,09,23,01,00,9.80
2008,09,23,01,01,9.80
2008,09,23,01,02,9.80
2008,09,23,01,03,9.80
2008,09,23,01,04,9.80
2008,09,23,01,05,9.80
2008,09,23,01,06,9.70
2008,09,23,01,07,9.80
2008,09,23,01,08,9.70
2008,09,23,01,09,9.70
2008,09,23,01,10,9.70
2008,09,23,01,11,9.70
2008,09,23,01,12,9.70
2008,09,23,01,13,9.70
2008,09,23,01,14,9.70
2008,09,23,01,15,9.70
2008,09,23,01,16,9.70
2008,09,23,01,17,9.70
2008,09,23,01,18,9.60
2008,09,23,01,19,9.60
2008,09,23,01,20,9.60
2008,09,23,01,21,9.60
2008,09,23,01,22,9.60
2008,09,23,01,23,9.60
2008,09,23,01,24,9.60
2008,09,23,01,25,9.60
2008,09,23,01,26,9.60
2008,09,23,01,27,9.60
2008,09,23,01,28,9.60
2008,09,23,01,29,9.60
2008,09,23,01,30,9.60
2008,09,23,01,31,9.60
2008,09,23,01,32,9.60
2008,09,23,01,33,9.60
2008,09,23,01,34,9.50
2008,09,23,01,35,9.50
2008,09,23,01,36,9.50
2008,09,23,01,37,9.50
2008,09,23,01,38,9.50
2008,09,23,01,39,9.50
2008,09,23,01,40,9.50
2008,09,23,01,41,9.40
2008,09,23,01,42,9.50
2008,09,23,01,43,9.50
2008,09,23,01,44,9.50
2008,09,23,01,45,9.50
2008,09,23,01,46,9.50
2008,09,23,01,47,9.50
2008,09,23,01,48,9.50
2008,09,23,01,49,9.50
2008,09,23,01,50,9.50
2008,09,23,01,51,9.50
2008,09,23,01,52,9.50
2008,09,23,01,53,9.50
2008,09,23,01,54,9.50
2008,09,23,01,55,9.40
2008,09,23,01,56,9.40
2008,09,23,01,57,9.40
2008,09,23,01,58,9.40
2008,09,23,01,59,9.40
2008,09,23,02,00,9.40
2008,09,23,02,01,9.40
2008,09,23,02,02,9.40
2008,09,23,02,03,9.40
2008,09,23,02,04,9.40
2008,09,23,02,05,9.30
2008,09,23,02,06,9.30
2008,09,23,02,07,9.30
2008,09,23,02,08,9.30
2008,09,23,02,09,9.30
2008,09,23,02,10,9.30
2008,09,23,02,11,9.30
2008,09,23,02,12,9.30
2008,09,23,02,13,9.30
2008,09,23,02,14,9.30
2008,09,23,02,15,9.30
2008,09,23,02,16,9.20
2008,09,23,02,17,9.20
2008,09,23,02,18,9.20
2008,09,23,02,19,9.20
2008,09,23,02,20,9.20
2008,09,23,02,21,9.20
2008,09,23,02,22,9.20
2008,09,23,02,23,9.20
2008,09,23,02,24,9.20
2008,09,23,02,25,9.20
2008,09,23,02,26,9.20
2008,09,23,02,27,9.20
2008,09,23,02,28,9.20
2008,09,23,02,29,9.20
2008,09,23,02,30,9.20
2008,09,23,02,31,9.20
2008,09,23,02,32,9.20
2008,09,23,02,33,9.20
2008,09,23,02,34,9.20
2008,09,23,02,35,9.20
2008,09,23,02,36,9.20
2008,09,23,02,37,9.10
2008,09,23,02,38,9.10
2008,09,23,02,39,9.10
2008,09,23,02,40,9.10
2008,09,23,02,41,9.10
2008,09,23,02,42,9.10
2008,09,23,02,43,9.10
2008,09,23,02,44,9.00
2008,09,23,02,45,9.00
2008,09,23,02,46,9.00
2008,09,23,02,47,9.00
2008,09,23,02,48,9.00
2008,09,23,02,49,9.00
2008,09,23,02,50,9.00
2008,09,23,02,51,9.00
2008,09,23,02,52,8.90
2008,09,23,02,53,8.90
2008,09,23,02,54,8.90
2008,09,23,02,55,8.90
2008,09,23,02,56,8.90
2008,09,23,02,57,8.90
2008,09,23,02,58,8.90
2008,09,23,02,59,8.90
2008,09,23,03,00,8.90
2008,09,23,03,01,8.90
2008,09,23,03,02,8.80
2008,09,23,03,03,8.80
2008,09,23,03,04,8.80
2008,09,23,03,05,8.80
2008,09,23,03,06,8.80
2008,09,23,03,07,8.80
2008,09,23,03,08,8.70
2008,09,23,03,09,8.70
2008,09,23,03,10,8.70
2008,09,23,03,11,8.70
2008,09,23,03,12,8.70
2008,09,23,03,13,8.70
2008,09,23,03,14,8.70
2008,09,23,03,15,8.60
2008,09,23,03,16,8.60
2008,09,23,03,17,8.60
2008,09,23,03,18,8.60
2008,09,23,03,19,8.60
2008,09,23,03,20,8.60
2008,09,23,03,21,8.60
2008,09,23,03,22,8.60
2008,09,23,03,23,8.60
2008,09,23,03,24,8.60
2008,09,23,03,25,8.60
2008,09,23,03,26,8.60
2008,09,23,03,27,8.50
2008,09,23,03,28,8.50
2008,09,23,03,29,8.50
2008,09,23,03,30,8.40
2008,09,23,03,31,8.50
2008,09,23,03,32,8.40
2008,09,23,03,33,8.40
2008,09,23,03,34,8.40
2008,09,23,03,35,8.40
2008,09,23,03,36,8.40
2008,09,23,03,37,8.50
2008,09,23,03,38,8.50
2008,09,23,03,39,8.50
2008,09,23,03,40,8.50
2008,09,23,03,41,8.50
2008,09,23,03,42,8.50
2008,09,23,03,43,8.50
2008,09,23,03,44,8.50
2008,09,23,03,45,8.40
2008,09,23,03,46,8.40
2008,09,23,03,47,8.40
2008,09,23,03,48,8.40
2008,09,23,03,49,8.30
2008,09,23,03,50,8.30
2008,09,23,03,51,8.30
2008,09,23,03,52,8.30
2008,09,23,03,53,8.30
2008,09,23,03,54,8.30
2008,09,23,03,55,8.30
2008,09,23,03,56,8.30
2008,09,23,03,57,8.20
2008,09,23,03,58,8.20
2008,09,23,03,59,8.20
2008,09,23,04,00,8.20
2008,09,23,04,01,8.20
2008,09,23,04,02,8.20
2008,09,23,04,03,8.10
2008,09,23,04,04,8.10
2008,09,23,04,05,8.10
2008,09,23,04,06,8.00
2008,09,23,04,07,8.00
2008,09,23,04,08,8.00
2008,09,23,04,09,7.90
2008,09,23,04,10,7.90
2008,09,23,04,11,7.90
2008,09,23,04,12,7.90
2008,09,23,04,13,7.90
2008,09,23,04,14,7.90
2008,09,23,04,15,7.90
2008,09,23,04,16,7.80
2008,09,23,04,17,7.80
2008,09,23,04,18,7.80
2008,09,23,04,19,7.80
2008,09,23,04,20,7.80
2008,09,23,04,21,7.70
2008,09,23,04,22,7.70
2008,09,23,04,23,7.60
2008,09,23,04,24,7.60
2008,09,23,04,25,7.60
2008,09,23,04,26,7.60
2008,09,23,04,27,7.60
2008,09,23,04,28,7.50
2008,09,23,04,29,7.50
2008,09,23,04,30,7.50
2008,09,23,04,31,7.50
2008,09,23,04,32,7.50
2008,09,23,04,33,7.50
2008,09,23,04,34,7.40
2008,09,23,04,35,7.40
2008,09,23,04,36,7.40
2008,09,23,04,37,7.40
2008,09,23,04,38,7.40
2008,09,23,04,39,7.30
2008,09,23,04,40,7.20
2008,09,23,04,41,7.20
2008,09,23,04,42,7.20
2008,09,23,04,43,7.10
2008,09,23,04,44,7.10
2008,09,23,04,45,7.10
2008,09,23,04,46,7.20
2008,09,23,04,47,7.20
2008,09,23,04,48,7.30
2008,09,23,04,49,7.40
2008,09,23,04,50,7.40
2008,09,23,04,51,7.50
2008,09,23,04,52,7.50
2008,09,23,04,53,7.60
2008,09,23,04,54,7.60
2008,09,23,04,55,7.70
2008,09,23,04,56,7.70
2008,09,23,04,57,7.70
2008,09,23,04,58,7.70
2008,09,23,04,59,7.70
2008,09,23,05,00,7.70
2008,09,23,05,01,7.70
2008,09,23,05,02,7.70
2008,09,23,05,03,7.60
2008,09,23,05,04,7.60
2008,09,23,05,05,7.60
2008,09,23,05,06,7.50
2008,09,23,05,07,7.50
2008,09,23,05,08,7.50
2008,09,23,05,09,7.50
2008,09,23,05,10,7.50
2008,09,23,05,11,7.50
2008,09,23,05,12,7.50
2008,09,23,05,13,7.60
2008,09,23,05,14,7.50
2008,09,23,05,15,7.50
2008,09,23,05,16,7.50
2008,09,23,05,17,7.40
2008,09,23,05,18,7.40
2008,09,23,05,19,7.40
2008,09,23,05,20,7.30
2008,09,23,05,21,7.30
2008,09,23,05,22,7.30
2008,09,23,05,23,7.20
2008,09,23,05,24,7.20
2008,09,23,05,25,7.20
2008,09,23,05,26,7.20
2008,09,23,05,27,7.20
2008,09,23,05,28,7.20
2008,09,23,05,29,7.20
2008,09,23,05,30,7.20
2008,09,23,05,31,7.20
2008,09,23,05,32,7.10
2008,09,23,05,33,7.10
2008,09,23,05,34,7.10
2008,09,23,05,35,7.10
2008,09,23,05,36,7.10
2008,09,23,05,37,7.10
2008,09,23,05,38,7.10
2008,09,23,05,39,7.10
2008,09,23,05,40,7.10
2008,09,23,05,41,7.10
2008,09,23,05,42,7.20
2008,09,23,05,43,7.20
2008,09,23,05,44,7.20
2008,09,23,05,45,7.20
2008,09,23,05,46,7.20
2008,09,23,05,47,7.20
2008,09,23,05,48,7.20
2008,09,23,05,49,7.20
2008,09,23,05,50,7.20
2008,09,23,05,51,7.20
2008,09,23,05,52,7.20
2008,09,23,05,53,7.20
2008,09,23,05,54,7.20
2008,09,23,05,55,7.20
2008,09,23,05,56,7.20
2008,09,23,05,57,7.20
2008,09,23,05,58,7.20
2008,09,23,05,59,7.20
2008,09,23,06,00,7.20
2008,09,23,06,01,7.20
2008,09,23,06,02,7.10
2008,09,23,06,03,7.10
2008,09,23,06,04,7.10
2008,09,23,06,05,7.10
2008,09,23,06,06,7.10
2008,09,23,06,07,7.10
2008,09,23,06,08,7.10
2008,09,23,06,09,7.10
2008,09,23,06,10,7.10
2008,09,23,06,11,7.10
2008,09,23,06,12,7.10
2008,09,23,06,13,7.10
2008,09,23,06,14,7.10
2008,09,23,06,15,7.10
2008,09,23,06,16,7.10
2008,09,23,06,17,7.10
2008,09,23,06,18,7.10
2008,09,23,06,19,7.10
2008,09,23,06,20,7.20
2008,09,23,06,21,7.20
2008,09,23,06,22,7.20
2008,09,23,06,23,7.20
2008,09,23,06,24,7.20
2008,09,23,06,25,7.30
2008,09,23,06,26,7.30
2008,09,23,06,27,7.30
2008,09,23,06,28,7.30
2008,09,23,06,29,7.30
2008,09,23,06,30,7.30
2008,09,23,06,31,7.40
2008,09,23,06,32,7.40
2008,09,23,06,33,7.40
2008,09,23,06,34,7.40
2008,09,23,06,35,7.40
2008,09,23,06,36,7.30
2008,09,23,06,37,7.20
2008,09,23,06,38,7.20
2008,09,23,06,39,7.10
2008,09,23,06,40,7.00
2008,09,23,06,41,6.90
2008,09,23,06,42,6.80
2008,09,23,06,43,6.70
2008,09,23,06,44,6.70
2008,09,23,06,45,6.60
2008,09,23,06,46,6.60
2008,09,23,06,47,6.60
2008,09,23,06,48,6.60
2008,09,23,06,49,6.60
2008,09,23,06,50,6.60
2008,09,23,06,51,6.60
2008,09,23,06,52,6.60
2008,09,23,06,53,6.60
2008,09,23,06,54,6.60
2008,09,23,06,55,6.60
2008,09,23,06,56,6.60
2008,09,23,06,57,6.60
2008,09,23,06,58,6.60
2008,09,23,06,59,6.50
2008,09,23,07,00,6.50
2008,09,23,07,01,6.40
2008,09,23,07,02,6.40
2008,09,23,07,03,6.40
2008,09,23,07,04,6.40
2008,09,23,07,05,6.40
2008,09,23,07,06,6.40
2008,09,23,07,07,6.30
2008,09,23,07,08,6.30
2008,09,23,07,09,6.30
2008,09,23,07,10,6.30
2008,09,23,07,11,6.30
2008,09,23,07,12,6.30
2008,09,23,07,13,6.40
2008,09,23,07,14,6.40
2008,09,23,07,15,6.50
2008,09,23,07,16,6.50
2008,09,23,07,17,6.60
2008,09,23,07,18,6.60
2008,09,23,07,19,6.70
2008,09,23,07,20,6.70
2008,09,23,07,21,6.70
2008,09,23,07,22,6.80
2008,09,23,07,23,6.80
2008,09,23,07,24,6.80
2008,09,23,07,25,6.80
2008,09,23,07,26,6.70
2008,09,23,07,27,6.70
2008,09,23,07,28,6.70
2008,09,23,07,29,6.70
2008,09,23,07,30,6.70
2008,09,23,07,31,6.70
2008,09,23,07,32,6.70
2008,09,23,07,33,6.70
2008,09,23,07,34,6.70
2008,09,23,07,35,6.70
2008,09,23,07,36,6.80
2008,09,23,07,37,6.80
2008,09,23,07,38,6.80
2008,09,23,07,39,6.80
2008,09,23,07,40,6.80
2008,09,23,07,41,6.80
2008,09,23,07,42,6.90
2008,09,23,07,43,6.90
2008,09,23,07,44,6.90
2008,09,23,07,45,7.00
2008,09,23,07,46,7.00
2008,09,23,07,47,7.10
2008,09,23,07,48,7.20
2008,09,23,07,49,7.20
2008,09,23,07,50,7.20
2008,09,23,07,51,7.20
2008,09,23,07,52,7.30
2008,09,23,07,53,7.30
2008,09,23,07,54,7.30
2008,09,23,07,55,7.40
2008,09,23,07,56,7.40
2008,09,23,07,57,7.40
2008,09,23,07,58,7.40
2008,09,23,07,59,7.50
2008,09,23,08,00,7.50
2008,09,23,08,01,7.50
2008,09,23,08,02,7.50
2008,09,23,08,03,7.50
2008,09,23,08,04,7.50
2008,09,23,08,05,7.60
2008,09,23,08,06,7.60
2008,09,23,08,07,7.60
2008,09,23,08,08,7.60
2008,09,23,08,09,7.60
2008,09,23,08,10,7.60
2008,09,23,08,11,7.60
2008,09,23,08,12,7.60
2008,09,23,08,13,7.60
2008,09,23,08,14,7.60
2008,09,23,08,15,7.60
2008,09,23,08,16,7.70
2008,09,23,08,17,7.70
2008,09,23,08,18,7.70
2008,09,23,08,19,7.70
2008,09,23,08,20,7.70
2008,09,23,08,21,7.70
2008,09,23,08,22,7.70
2008,09,23,08,23,7.70
2008,09,23,08,24,7.70
2008,09,23,08,25,7.70
2008,09,23,08,26,7.70
2008,09,23,08,27,7.70
2008,09,23,08,28,7.70
2008,09,23,08,29,7.70
2008,09,23,08,30,7.80
2008,09,23,08,31,7.80
2008,09,23,08,32,7.80
2008,09,23,08,33,7.90
2008,09,23,08,34,7.90
2008,09,23,08,35,7.90
2008,09,23,08,36,8.00
2008,09,23,08,37,8.00
2008,09,23,08,38,8.10
2008,09,23,08,39,8.10
2008,09,23,08,40,8.20
2008,09,23,08,41,8.20
2008,09,23,08,42,8.20
2008,09,23,08,43,8.30
2008,09,23,08,44,8.30
2008,09,23,08,45,8.40
2008,09,23,08,46,8.40
2008,09,23,08,47,8.40
2008,09,23,08,48,8.50
2008,09,23,08,49,8.60
2008,09,23,08,50,8.60
2008,09,23,08,51,8.70
2008,09,23,08,52,8.70
2008,09,23,08,53,8.80
2008,09,23,08,54,8.80
2008,09,23,08,55,8.90
2008,09,23,08,56,8.90
2008,09,23,08,57,9.00
2008,09,23,08,58,9.00
2008,09,23,08,59,9.10
2008,09,23,09,00,9.10
2008,09,23,09,01,9.20
2008,09,23,09,02,9.20
2008,09,23,09,03,9.30
2008,09,23,09,04,9.30
2008,09,23,09,05,9.40
2008,09,23,09,06,9.40
2008,09,23,09,07,9.50
2008,09,23,09,08,9.50
2008,09,23,09,09,9.60
2008,09,23,09,10,9.60
2008,09,23,09,11,9.60
2008,09,23,09,12,9.70
2008,09,23,09,13,9.70
2008,09,23,09,14,9.80
2008,09,23,09,15,9.80
2008,09,23,09,16,9.90
2008,09,23,09,17,10.00
2008,09,23,09,18,10.10
2008,09,23,09,19,10.20
2008,09,23,09,20,10.30
2008,09,23,09,21,10.40
2008,09,23,09,22,10.40
2008,09,23,09,23,10.40
2008,09,23,09,24,10.40
2008,09,23,09,25,10.50
2008,09,23,09,26,10.50
2008,09,23,09,27,10.50
2008,09,23,09,28,10.50
2008,09,23,09,29,10.60
2008,09,23,09,30,10.60
2008,09,23,09,31,10.60
2008,09,23,09,32,10.70
2008,09,23,09,33,10.70
2008,09,23,09,34,10.80
2008,09,23,09,35,10.80
2008,09,23,09,36,10.90
2008,09,23,09,37,10.90
2008,09,23,09,38,10.90
2008,09,23,09,39,11.00
2008,09,23,09,40,11.00
2008,09,23,09,41,11.10
2008,09,23,09,42,11.10
2008,09,23,09,43,11.10
2008,09,23,09,44,11.10
2008,09,23,09,45,11.00
2008,09,23,09,46,11.00
2008,09,23,09,47,10.90
2008,09,23,09,48,10.90
2008,09,23,09,49,10.80
2008,09,23,09,50,10.80
2008,09,23,09,51,10.90
2008,09,23,09,52,10.90
2008,09,23,09,53,10.90
2008,09,23,09,54,10.90
2008,09,23,09,55,10.90
2008,09,23,09,56,10.90
2008,09,23,09,57,11.00
2008,09,23,09,58,11.10
2008,09,23,09,59,11.10
2008,09,23,10,00,11.20
2008,09,23,10,01,11.20
2008,09,23,10,02,11.30
2008,09,23,10,03,11.20
2008,09,23,10,04,11.20
2008,09,23,10,05,11.30
2008,09,23,10,06,11.30
2008,09,23,10,07,11.30
2008,09,23,10,08,11.30
2008,09,23,10,09,11.20
2008,09,23,10,10,11.10
2008,09,23,10,11,11.10
2008,09,23,10,12,11.00
2008,09,23,10,13,11.00
2008,09,23,10,14,11.10
2008,09,23,10,15,11.00
2008,09,23,10,16,10.90
2008,09,23,10,17,10.90
2008,09,23,10,18,10.90
2008,09,23,10,19,10.90
2008,09,23,10,20,10.90
2008,09,23,10,21,10.90
2008,09,23,10,22,10.90
2008,09,23,10,23,10.90
2008,09,23,10,24,10.90
2008,09,23,10,25,10.80
2008,09,23,10,26,10.90
2008,09,23,10,27,10.90
2008,09,23,10,28,10.90
2008,09,23,10,29,10.90
2008,09,23,10,30,10.90
2008,09,23,10,31,10.90
2008,09,23,10,32,10.90
2008,09,23,10,33,10.80
2008,09,23,10,34,10.80
2008,09,23,10,35,10.90
2008,09,23,10,36,10.90
2008,09,23,10,37,11.00
2008,09,23,10,38,11.00
2008,09,23,10,39,11.10
2008,09,23,10,40,11.10
2008,09,23,10,41,11.20
2008,09,23,10,42,11.20
2008,09,23,10,43,11.20
2008,09,23,10,44,11.30
2008,09,23,10,45,11.30
2008,09,23,10,46,11.40
2008,09,23,10,47,11.30
2008,09,23,10,48,11.30
2008,09,23,10,49,11.30
2008,09,23,10,50,11.30
2008,09,23,10,51,11.30
2008,09,23,10,52,11.30
2008,09,23,10,53,11.30
2008,09,23,10,54,11.40
2008,09,23,10,55,11.40
2008,09,23,10,56,11.40
2008,09,23,10,57,11.40
2008,09,23,10,58,11.50
2008,09,23,10,59,11.60
2008,09,23,11,00,11.60
2008,09,23,11,01,11.60
2008,09,23,11,02,11.70
2008,09,23,11,03,11.70
2008,09,23,11,04,11.80
2008,09,23,11,05,11.80
2008,09,23,11,06,11.80
2008,09,23,11,07,11.70
2008,09,23,11,08,11.70
2008,09,23,11,09,11.70
2008,09,23,11,10,11.70
2008,09,23,11,11,11.70
2008,09,23,11,12,11.80
2008,09,23,11,13,11.80
2008,09,23,11,14,11.80
2008,09,23,11,15,11.80
2008,09,23,11,16,11.80
2008,09,23,11,17,11.80
2008,09,23,11,18,11.80
2008,09,23,11,19,11.80
2008,09,23,11,20,11.80
2008,09,23,11,21,11.70
2008,09,23,11,22,11.80
2008,09,23,11,23,11.80
2008,09,23,11,24,11.80
2008,09,23,11,25,11.90
2008,09,23,11,26,12.00
2008,09,23,11,27,12.00
2008,09,23,11,28,12.00
2008,09,23,11,29,12.00
2008,09,23,11,30,12.00
2008,09,23,11,31,12.00
2008,09,23,11,32,12.10
2008,09,23,11,33,12.10
2008,09,23,11,34,12.20
2008,09,23,11,35,12.20
2008,09,23,11,36,12.20
2008,09,23,11,37,12.20
2008,09,23,11,38,12.30
2008,09,23,11,39,12.30
2008,09,23,11,40,12.20
2008,09,23,11,41,12.20
2008,09,23,11,42,12.20
2008,09,23,11,43,12.20
2008,09,23,11,44,12.20
2008,09,23,11,45,12.20
2008,09,23,11,46,12.20
2008,09,23,11,47,12.20
2008,09,23,11,48,12.20
2008,09,23,11,49,12.20
2008,09,23,11,50,12.20
2008,09,23,11,51,12.20
2008,09,23,11,52,12.20
2008,09,23,11,53,12.20
2008,09,23,11,54,12.20
2008,09,23,11,55,12.30
2008,09,23,11,56,12.30
2008,09,23,11,57,12.40
2008,09,23,11,58,12.40
2008,09,23,11,59,12.40
2008,09,23,12,00,12.40
2008,09,23,12,01,12.50
2008,09,23,12,02,12.50
2008,09,23,12,03,12.60
2008,09,23,12,04,12.70
2008,09,23,12,05,12.80
2008,09,23,12,06,12.80
2008,09,23,12,07,12.80
2008,09,23,12,08,12.90
2008,09,23,12,09,12.90
2008,09,23,12,10,12.90
2008,09,23,12,11,13.00
2008,09,23,12,12,13.00
2008,09,23,12,13,13.10
2008,09,23,12,14,13.00
2008,09,23,12,15,13.00
2008,09,23,12,16,13.00
2008,09,23,12,17,13.00
2008,09,23,12,18,13.00
2008,09,23,12,19,12.90
2008,09,23,12,20,12.80
2008,09,23,12,21,12.70
2008,09,23,12,22,12.60
2008,09,23,12,23,12.50
2008,09,23,12,24,12.50
2008,09,23,12,25,12.40
2008,09,23,12,26,12.40
2008,09,23,12,27,12.40
2008,09,23,12,28,12.40
2008,09,23,12,29,12.50
2008,09,23,12,30,12.50
2008,09,23,12,31,12.40
2008,09,23,12,32,12.40
2008,09,23,12,33,12.40
2008,09,23,12,34,12.40
2008,09,23,12,35,12.40
2008,09,23,12,36,12.40
2008,09,23,12,37,12.40
2008,09,23,12,38,12.40
2008,09,23,12,39,12.40
2008,09,23,12,40,12.40
2008,09,23,12,41,12.40
2008,09,23,12,42,12.40
2008,09,23,12,43,12.50
2008,09,23,12,44,12.50
2008,09,23,12,45,12.60
2008,09,23,12,46,12.70
2008,09,23,12,47,12.70
2008,09,23,12,48,12.80
2008,09,23,12,49,12.90
2008,09,23,12,50,13.00
2008,09,23,12,51,13.10
2008,09,23,12,52,13.20
2008,09,23,12,53,13.30
2008,09,23,12,54,13.30
2008,09,23,12,55,13.30
2008,09,23,12,56,13.30
2008,09,23,12,57,13.30
2008,09,23,12,58,13.30
2008,09,23,12,59,13.40
2008,09,23,13,00,13.40
2008,09,23,13,01,13.30
2008,09,23,13,02,13.30
2008,09,23,13,03,13.30
2008,09,23,13,04,13.20
2008,09,23,13,05,13.20
2008,09,23,13,06,13.20
2008,09,23,13,07,13.20
2008,09,23,13,08,13.20
2008,09,23,13,09,13.10
2008,09,23,13,10,13.10
2008,09,23,13,11,13.10
2008,09,23,13,12,13.10
2008,09,23,13,13,13.20
2008,09,23,13,14,13.20
2008,09,23,13,15,13.30
2008,09,23,13,16,13.40
2008,09,23,13,17,13.40
2008,09,23,13,18,13.50
2008,09,23,13,19,13.60
2008,09,23,13,20,13.60
2008,09,23,13,21,13.60
2008,09,23,13,22,13.60
2008,09,23,13,23,13.60
2008,09,23,13,24,13.60
2008,09,23,13,25,13.60
2008,09,23,13,26,13.60
2008,09,23,13,27,13.60
2008,09,23,13,28,13.60
2008,09,23,13,29,13.60
2008,09,23,13,30,13.60
2008,09,23,13,31,13.60
2008,09,23,13,32,13.60
2008,09,23,13,33,13.60
2008,09,23,13,34,13.60
2008,09,23,13,35,13.60
2008,09,23,13,36,13.60
2008,09,23,13,37,13.70
2008,09,23,13,38,13.80
2008,09,23,13,39,13.80
2008,09,23,13,40,13.90
2008,09,23,13,41,13.90
2008,09,23,13,42,13.80
2008,09,23,13,43,13.70
2008,09,23,13,44,13.70
2008,09,23,13,45,13.70
2008,09,23,13,46,13.70
2008,09,23,13,47,13.70
2008,09,23,13,48,13.70
2008,09,23,13,49,13.70
2008,09,23,13,50,13.70
2008,09,23,13,51,13.70
2008,09,23,13,52,13.70
2008,09,23,13,53,13.70
2008,09,23,13,54,13.70
2008,09,23,13,55,13.70
2008,09,23,13,56,13.80
2008,09,23,13,57,13.80
2008,09,23,13,58,13.80
2008,09,23,13,59,13.80
2008,09,23,14,00,13.90
2008,09,23,14,01,13.90
2008,09,23,14,02,14.00
2008,09,23,14,03,14.10
2008,09,23,14,04,14.10
2008,09,23,14,05,14.10
2008,09,23,14,06,14.10
2008,09,23,14,07,14.10
2008,09,23,14,08,14.00
2008,09,23,14,09,14.10
2008,09,23,14,10,14.00
2008,09,23,14,11,14.00
2008,09,23,14,12,14.10
2008,09,23,14,13,14.10
2008,09,23,14,14,14.20
2008,09,23,14,15,14.20
2008,09,23,14,16,14.20
2008,09,23,14,17,14.20
2008,09,23,14,18,14.20
2008,09,23,14,19,14.20
2008,09,23,14,20,14.20
2008,09,23,14,21,14.20
2008,09,23,14,22,14.20
2008,09,23,14,23,14.20
2008,09,23,14,24,14.10
2008,09,23,14,25,14.10
2008,09,23,14,26,14.10
2008,09,23,14,27,14.10
2008,09,23,14,28,14.10
2008,09,23,14,29,14.20
2008,09,23,14,30,14.30
2008,09,23,14,31,14.30
2008,09,23,14,32,14.40
2008,09,23,14,33,14.40
2008,09,23,14,34,14.30
2008,09,23,14,35,14.30
2008,09,23,14,36,14.30
2008,09,23,14,37,14.30
2008,09,23,14,38,14.30
2008,09,23,14,39,14.30
2008,09,23,14,40,14.30
2008,09,23,14,41,14.30
2008,09,23,14,42,14.30
2008,09,23,14,43,14.30
2008,09,23,14,44,14.30
2008,09,23,14,45,14.30
2008,09,23,14,46,14.30
2008,09,23,14,47,14.30
2008,09,23,14,48,14.30
2008,09,23,14,49,14.30
2008,09,23,14,50,14.30
2008,09,23,14,51,14.30
2008,09,23,14,52,14.30
2008,09,23,14,53,14.30
2008,09,23,14,54,14.30
2008,09,23,14,55,14.40
2008,09,23,14,56,14.40
2008,09,23,14,57,14.40
2008,09,23,14,58,14.40
2008,09,23,14,59,14.40
2008,09,23,15,00,14.40
2008,09,23,15,01,14.40
2008,09,23,15,02,14.40
2008,09,23,15,03,14.30
2008,09,23,15,04,14.30
2008,09,23,15,05,14.40
2008,09,23,15,06,14.40
2008,09,23,15,07,14.40
2008,09,23,15,08,14.40
2008,09,23,15,09,14.40
2008,09,23,15,10,14.40
2008,09,23,15,11,14.50
2008,09,23,15,12,14.60
2008,09,23,15,13,14.60
2008,09,23,15,14,14.60
2008,09,23,15,15,14.60
2008,09,23,15,16,14.60
2008,09,23,15,17,14.60
2008,09,23,15,18,14.60
2008,09,23,15,19,14.50
2008,09,23,15,20,14.40
2008,09,23,15,21,14.40
2008,09,23,15,22,14.40
2008,09,23,15,23,14.50
2008,09,23,15,24,14.50
2008,09,23,15,25,14.50
2008,09,23,15,26,14.40
2008,09,23,15,27,14.40
2008,09,23,15,28,14.30
2008,09,23,15,29,14.30
2008,09,23,15,30,14.20
2008,09,23,15,31,14.20
2008,09,23,15,32,14.20
2008,09,23,15,33,14.10
2008,09,23,15,34,14.10
2008,09,23,15,35,14.10
2008,09,23,15,36,14.20
2008,09,23,15,37,14.20
2008,09,23,15,38,14.20
2008,09,23,15,39,14.20
2008,09,23,15,40,14.30
2008,09,23,15,41,14.20
2008,09,23,15,42,14.20
2008,09,23,15,43,14.20
2008,09,23,15,44,14.20
2008,09,23,15,45,14.20
2008,09,23,15,46,14.20
2008,09,23,15,47,14.20
2008,09,23,15,48,14.20
2008,09,23,15,49,14.20
2008,09,23,15,50,14.10
2008,09,23,15,51,14.10
2008,09,23,15,52,14.20
2008,09,23,15,53,14.20
2008,09,23,15,54,14.30
2008,09,23,15,55,14.30
2008,09,23,15,56,14.30
2008,09,23,15,57,14.30
2008,09,23,15,58,14.30
2008,09,23,15,59,14.30
2008,09,23,16,00,14.30
2008,09,23,16,01,14.30
2008,09,23,16,02,14.20
2008,09,23,16,03,14.20
2008,09,23,16,04,14.10
2008,09,23,16,05,14.10
2008,09,23,16,06,14.10
2008,09,23,16,07,14.00
2008,09,23,16,08,14.00
2008,09,23,16,09,14.00
2008,09,23,16,10,13.90
2008,09,23,16,11,13.90
2008,09,23,16,12,13.90
2008,09,23,16,13,14.00
2008,09,23,16,14,14.00
2008,09,23,16,15,14.00
2008,09,23,16,16,14.10
2008,09,23,16,17,14.10
2008,09,23,16,18,14.10
2008,09,23,16,19,14.10
2008,09,23,16,20,14.10
2008,09,23,16,21,14.10
2008,09,23,16,22,14.10
2008,09,23,16,23,14.10
2008,09,23,16,24,14.10
2008,09,23,16,25,14.10
2008,09,23,16,26,14.10
2008,09,23,16,27,14.10
2008,09,23,16,28,14.20
2008,09,23,16,29,14.20
2008,09,23,16,30,14.20
2008,09,23,16,31,14.20
2008,09,23,16,32,14.10
2008,09,23,16,33,14.10
2008,09,23,16,34,14.10
2008,09,23,16,35,14.10
2008,09,23,16,36,14.10
2008,09,23,16,37,14.10
2008,09,23,16,38,14.10
2008,09,23,16,39,14.20
2008,09,23,16,40,14.20
2008,09,23,16,41,14.20
2008,09,23,16,42,14.20
2008,09,23,16,43,14.20
2008,09,23,16,44,14.10
2008,09,23,16,45,14.10
2008,09,23,16,46,14.10
2008,09,23,16,47,14.10
2008,09,23,16,48,14.10
2008,09,23,16,49,14.10
2008,09,23,16,50,14.10
2008,09,23,16,51,14.10
2008,09,23,16,52,14.20
2008,09,23,16,53,14.20
2008,09,23,16,54,14.20
2008,09,23,16,55,14.30
2008,09,23,16,56,14.30
2008,09,23,16,57,14.30
2008,09,23,16,58,14.30
2008,09,23,16,59,14.30
2008,09,23,17,00,14.30
2008,09,23,17,01,14.30
2008,09,23,17,02,14.30
2008,09,23,17,03,14.40
2008,09,23,17,04,14.40
2008,09,23,17,05,14.40
2008,09,23,17,06,14.40
2008,09,23,17,07,14.40
2008,09,23,17,08,14.40
2008,09,23,17,09,14.30
2008,09,23,17,10,14.30
2008,09,23,17,11,14.20
2008,09,23,17,12,14.20
2008,09,23,17,13,14.20
2008,09,23,17,14,14.20
2008,09,23,17,15,14.20
2008,09,23,17,16,14.20
2008,09,23,17,17,14.20
2008,09,23,17,18,14.20
2008,09,23,17,19,14.20
2008,09,23,17,20,14.10
2008,09,23,17,21,14.20
2008,09,23,17,22,14.20
2008,09,23,17,23,14.10
2008,09,23,17,24,14.10
2008,09,23,17,25,14.10
2008,09,23,17,26,14.10
2008,09,23,17,27,14.10
2008,09,23,17,28,14.00
2008,09,23,17,29,14.00
2008,09,23,17,30,14.00
2008,09,23,17,31,14.00
2008,09,23,17,32,14.00
2008,09,23,17,33,14.00
2008,09,23,17,34,14.00
2008,09,23,17,35,14.00
2008,09,23,17,36,14.00
2008,09,23,17,37,14.00
2008,09,23,17,38,14.00
2008,09,23,17,39,14.00
2008,09,23,17,40,14.00
2008,09,23,17,41,14.00
2008,09,23,17,42,14.00